[[{"header":{"parameterUnit":"m.s-1","parameterCategory":1,"la1":30.2991,"la2":30.254,"lo1":-89.0895,"lo2":-89.0444,"dy":0.0017,"dx":0.0017,"nx":28,"ny":28,"refTime":"2025-06-07T09:00:00:Z","depth":0,"parameterNumber":2,"parameterNumberName":"U-component_of_WINDS"},"data":[0,0,0,0,0,0,0,0,0,0,0,0,0,0,0,0,0,0,0,0,0,0,0,0,0,0,0,0,0,0,0,0,0,0,0,0,0,0,0,0,0,0,0,0,0,0,0,0,0,0,0,0,0,0,0,0,0,0,2.9742,2.9744,0,2.9919,2.9921,2.9923,2.9912,2.9909,2.9907,2.9904,3.0089,3.0096,3.0104,0,0,0,0,0,0,0,0,0,0,0,0,0,2.9397,2.9403,2.9742,2.9744,2.9746,2.9919,2.9921,2.9923,2.9912,2.9909,2.9906,2.9903,3.0087,3.0095,3.0104,0,0,0,0,0,0,0,0,0,0,0,0,0,2.9557,2.9405,2.9742,2.9761,2.9765,2.9918,2.9921,2.9924,2.9913,2.9909,2.9905,2.9902,3.0084,3.0095,3.0105,3.0251,0,0,3.0139,3.0144,0,0,0,0,0,0,0,0,2.9548,2.957,2.9756,2.976,2.9765,2.9889,2.9867,3.0034,2.9914,2.9857,2.9904,2.99,3.0026,3.0042,3.0083,3.026,3.0268,3.014,3.0147,3.0152,3.0155,0,0,0,0,0,0,0,2.9537,2.9563,2.9812,2.9759,2.9764,2.9762,2.9781,2.9899,2.9961,2.9862,2.9861,2.9882,3.0028,3.0073,3.0088,3.0271,3.014,3.015,3.0156,3.0161,3.0574,3.0579,0,0,0,0,0,0,2.9521,2.9553,2.9806,2.9817,2.9645,2.9772,2.9792,2.9853,2.996,2.9972,2.9885,2.9881,3.0056,3.0075,3.0094,3.0271,3.0151,3.0162,3.0168,3.057,3.0575,3.058,0,0,0,0,0,0,2.9514,2.9544,2.9799,2.9685,2.9718,2.9782,2.985,2.9859,2.9904,2.9978,2.9989,2.992,3.0054,3.0079,3.0212,3.0277,3.0167,3.0177,3.0565,3.0572,3.0578,3.0626,0,0,0,0,0,0,2.9504,2.9541,2.9597,2.9687,2.9724,2.9913,2.9854,2.9865,2.9923,2.9919,3.0013,3.0025,3.0053,3.0195,3.0223,3.029,3.0185,3.0559,3.0568,3.0576,3.0619,3.0634,3.0646,0,0,0,0,0,2.9492,2.9605,2.96,2.963,2.9794,2.9917,2.9938,2.9967,2.9928,2.9985,3.0032,3.0022,3.0266,3.0209,3.024,3.0312,3.0555,3.0566,3.0575,3.0613,3.0631,3.0646,0,0,0,0,0,0,2.9523,2.9617,2.9613,2.9758,2.9829,2.9915,2.9987,2.9985,3.007,3.0063,3.0095,3.0116,3.025,3.0294,3.023,3.0458,3.0406,3.0422,3.0424,3.0441,3.0455,3.0441,3.0194,0,0,0,0,0,2.9546,2.9637,2.9715,2.9835,2.9871,2.9923,2.9978,2.9993,3.0069,3.01,3.0157,3.0232,3.0325,3.0386,3.0476,3.0625,3.0646,3.069,3.0703,3.0714,3.0728,3.081,3.083,3.0613,3.0613,3.0612,0,0,2.9596,2.9659,2.9715,2.9843,2.99,2.9994,2.9949,3.0051,3.012,3.0115,3.0244,3.0288,3.0374,3.0516,3.0581,3.0557,3.0792,3.0727,3.0735,3.0743,3.0822,3.0842,3.086,3.0619,3.0618,3.0617,0,0,2.9735,2.9792,2.9897,2.9955,3.0042,3.0075,3.0101,3.0187,3.0216,3.0345,3.0342,3.0427,3.0587,3.0648,3.07,3.086,3.0854,3.0888,3.0959,3.1038,3.1055,3.107,3.1127,3.1147,3.0902,3.0902,3.0902,0,2.9786,2.9927,2.9953,3.0055,3.0111,3.0109,3.0216,3.0272,3.0384,3.0423,3.0394,3.0594,3.0652,3.0807,3.0846,3.0888,3.0918,3.0878,3.105,3.1066,3.1081,3.1135,3.1156,3.0906,3.0905,3.0905,3.0904,0,2.9985,3.0082,3.0158,3.0264,3.0329,3.0434,3.0476,3.0539,3.0548,3.0584,3.0716,3.0785,3.0888,3.0926,3.0937,3.1083,3.1065,3.1043,3.0991,3.1104,3.1156,3.1177,3.0911,3.0909,3.0908,3.0907,0,0,3.0149,3.0267,3.0294,3.0342,3.0437,3.0513,3.0617,3.0716,3.0769,3.0847,3.0935,3.1069,3.1049,3.1108,3.1126,3.1195,3.1316,3.1165,3.1167,3.119,3.148,3.1495,3.1519,3.1313,3.1317,3.132,3.1473,0,3.0297,3.048,3.0506,3.0668,3.0758,3.0756,3.0847,3.0915,3.0952,3.1034,3.1075,3.117,3.1136,3.1171,3.124,3.1287,3.1375,3.1276,3.1395,3.1399,3.1373,3.1546,3.1563,3.1704,3.1493,3.1496,3.1499,0,3.0494,3.0574,3.0745,3.0826,3.0865,3.0945,3.1038,3.1116,3.1193,3.1215,3.128,3.1289,3.1397,3.134,3.1489,3.1422,3.1472,3.1502,3.1508,3.152,3.1455,3.1562,3.1749,3.177,3.1531,3.1528,3.1526,0,3.0595,3.0747,3.0868,3.0909,3.1007,3.1063,3.1107,3.118,3.1237,3.1319,3.1356,3.145,3.1501,3.1573,3.1607,3.1563,3.1754,3.17,3.1775,3.1774,3.1815,3.1812,3.2013,3.1849,3.1848,3.1848,3.1848,0,3.0757,3.0862,3.0914,3.0989,3.1105,3.1134,3.1249,3.1291,3.1356,3.1438,3.1444,3.1522,3.1562,3.1646,3.1673,3.1792,3.1815,3.1836,3.1842,3.1835,3.1832,3.1868,3.1859,3.1854,3.1852,3.1851,3.185,0,3.089,3.093,3.1062,3.1143,3.1165,3.1248,3.1317,3.139,3.1425,3.153,3.1556,3.1613,3.1712,3.1752,3.1874,3.1893,3.2029,3.2028,3.2002,3.2004,3.2076,3.2068,3.2306,3.2338,3.2154,3.2155,3.2157,0,3.0991,3.1071,3.1159,3.1214,3.1259,3.1348,3.1406,3.1438,3.1499,3.1591,3.1653,3.1751,3.1831,3.199,3.2042,3.2135,3.2136,3.2213,3.215,3.214,3.2136,3.2131,3.2138,3.2224,3.2226,3.2228,3.2229,0,3.1165,3.118,3.1263,3.1353,3.1421,3.1494,3.1565,3.161,3.1652,3.172,3.1821,3.1883,3.2006,3.2104,3.2199,3.2245,3.2245,3.2248,3.227,3.2264,3.2245,3.2255,3.2033,3.2243,3.2241,3.224,3.2239,3.2239,3.1284,3.1354,3.1427,3.1519,3.1575,3.1641,3.1712,3.1756,3.184,3.1941,3.1955,3.2062,3.2137,3.2265,3.2314,3.2399,3.2379,3.2412,3.242,3.2427,3.2431,3.2232,3.2417,3.2416,3.2416,3.2416,3.2416,0,3.1458,3.1504,3.1588,3.1686,3.1758,3.1749,3.1827,3.1888,3.1982,3.2051,3.2129,3.2244,3.2338,3.2397,3.2492,3.2549,3.2551,3.2573,3.2568,3.2579,3.2444,3.2415,3.2569,3.2569,3.2569,3.2569,3.2569,3.2569,3.1556,3.1674,3.1697,3.1843,3.1889,3.1992,3.2037,3.2098,3.2153,3.228,3.2357,3.2395,3.246,3.2559,3.2645,3.266,3.2695,3.2718,3.2732,3.2604,3.2589,3.2573,3.2546,3.2726,3.2726,3.2859,3.2861,3.2862]},{"header":{"parameterUnit":"m.s-1","parameterCategory":1,"la1":30.2991,"la2":30.254,"lo1":-89.0895,"lo2":-89.0444,"dy":0.0017,"dx":0.0017,"nx":28,"ny":28,"refTime":"2025-06-07T09:00:00:Z","depth":0,"parameterNumber":3,"parameterNumberName":"V-component_of_WINDS"},"data":[0,0,0,0,0,0,0,0,0,0,0,0,0,0,0,0,0,0,0,0,0,0,0,0,0,0,0,0,0,0,0,0,0,0,0,0,0,0,0,0,0,0,0,0,0,0,0,0,0,0,0,0,0,0,0,0,0,0,0.1152,0.1152,0,0.1128,0.1128,0.1128,0.1098,0.1097,0.1097,0.1096,0.1073,0.1073,0.1073,0,0,0,0,0,0,0,0,0,0,0,0,0,0.1172,0.1171,0.1152,0.1152,0.1151,0.1128,0.1128,0.1128,0.1098,0.1097,0.1097,0.1096,0.1073,0.1073,0.1073,0,0,0,0,0,0,0,0,0,0,0,0,0,0.1157,0.1171,0.1152,0.1134,0.1132,0.1128,0.1128,0.1127,0.1098,0.1097,0.1097,0.1096,0.1073,0.1073,0.1073,0.1086,0,0,0.1072,0.1072,0,0,0,0,0,0,0,0,0.1158,0.1156,0.1137,0.1135,0.1133,0.1115,0.1126,0.1114,0.1098,0.1111,0.1096,0.1096,0.1088,0.1086,0.1084,0.1085,0.1084,0.1072,0.1072,0.1072,0.1072,0,0,0,0,0,0,0,0.1159,0.1157,0.1143,0.1136,0.1134,0.1127,0.1124,0.1124,0.1104,0.111,0.1107,0.1105,0.1087,0.1084,0.1083,0.1083,0.1072,0.1072,0.1072,0.1072,0.1093,0.1094,0,0,0,0,0,0,0.1163,0.1158,0.1143,0.1142,0.1144,0.1127,0.1124,0.1122,0.1104,0.11,0.1106,0.1104,0.1085,0.1083,0.1082,0.1096,0.1072,0.1072,0.1071,0.1093,0.1094,0.1094,0,0,0,0,0,0,0.1163,0.1162,0.1144,0.1149,0.1147,0.1127,0.1125,0.1121,0.1119,0.1101,0.1097,0.1107,0.1084,0.1082,0.1085,0.1095,0.1071,0.1071,0.1092,0.1093,0.1094,0.1124,0,0,0,0,0,0,0.1164,0.1162,0.1167,0.115,0.1146,0.1148,0.1126,0.1122,0.1118,0.1115,0.11,0.1097,0.1083,0.1085,0.1085,0.1094,0.1071,0.1091,0.1092,0.1094,0.1122,0.1126,0.1129,0,0,0,0,0,0.1165,0.1176,0.1167,0.1165,0.1152,0.1148,0.1146,0.113,0.1119,0.1124,0.1112,0.1098,0.1093,0.1086,0.1085,0.1094,0.109,0.1092,0.1094,0.112,0.1125,0.1129,0,0,0,0,0,0,0.1196,0.1174,0.1163,0.117,0.1161,0.1143,0.1149,0.1136,0.113,0.1128,0.1108,0.1104,0.111,0.1102,0.1094,0.1105,0.109,0.1091,0.1111,0.1115,0.1118,0.1121,0.1071,0,0,0,0,0,0.1203,0.1202,0.1183,0.119,0.1186,0.1168,0.1166,0.1154,0.1144,0.1141,0.1129,0.112,0.1117,0.1115,0.1111,0.112,0.1117,0.1126,0.113,0.1133,0.1135,0.1139,0.1143,0.11,0.11,0.11,0,0,0.1219,0.1207,0.1207,0.1196,0.1188,0.1187,0.1166,0.1166,0.1165,0.1141,0.1143,0.1134,0.1123,0.1129,0.1131,0.1122,0.1146,0.1135,0.1137,0.1138,0.1141,0.1145,0.1149,0.1101,0.1101,0.1101,0,0,0.1247,0.1238,0.1243,0.1235,0.1223,0.121,0.1211,0.1195,0.1188,0.119,0.1171,0.117,0.1165,0.1158,0.1153,0.1178,0.1165,0.1177,0.1196,0.1201,0.1204,0.1207,0.1216,0.122,0.1179,0.1179,0.1179,0,0.1269,0.1267,0.1248,0.1249,0.1244,0.1221,0.1227,0.122,0.1207,0.1205,0.1195,0.1188,0.1179,0.1183,0.1188,0.1185,0.1187,0.1179,0.1205,0.1208,0.121,0.1219,0.1222,0.118,0.118,0.118,0.118,0,0.1294,0.1292,0.1298,0.1286,0.1282,0.1285,0.1267,0.1265,0.1253,0.1242,0.1243,0.1231,0.1224,0.1224,0.1212,0.1226,0.1221,0.1209,0.1193,0.1216,0.1224,0.1227,0.1183,0.1182,0.1182,0.1181,0,0,0.1342,0.1318,0.1321,0.1315,0.1299,0.1298,0.13,0.1292,0.1291,0.1283,0.1284,0.128,0.1268,0.1263,0.125,0.1254,0.1274,0.124,0.124,0.1248,0.1289,0.1299,0.1303,0.1265,0.1265,0.1266,0.129,0,0.1368,0.137,0.1353,0.136,0.1358,0.1336,0.1338,0.1328,0.1317,0.1315,0.1302,0.13,0.1284,0.1281,0.1283,0.1271,0.1282,0.1269,0.1266,0.1266,0.1271,0.1307,0.1318,0.1342,0.1293,0.1293,0.1294,0,0.14,0.1392,0.1399,0.1382,0.1381,0.1383,0.1374,0.1372,0.136,0.1352,0.1346,0.1331,0.1332,0.1316,0.1317,0.1308,0.1305,0.1299,0.13,0.13,0.1282,0.1309,0.1349,0.1353,0.1298,0.1298,0.1298,0,0.1435,0.1427,0.143,0.1425,0.1406,0.1407,0.1399,0.1387,0.1384,0.1376,0.1374,0.1366,0.1363,0.1358,0.1341,0.1331,0.1344,0.1326,0.1338,0.1338,0.1342,0.1343,0.1384,0.1339,0.1339,0.1339,0.1339,0,0.1467,0.1472,0.1446,0.1448,0.1453,0.1432,0.1437,0.1427,0.1416,0.1416,0.1395,0.1396,0.1373,0.137,0.1357,0.136,0.1358,0.1352,0.1349,0.1355,0.1356,0.1354,0.1352,0.134,0.134,0.134,0.134,0,0.1508,0.1491,0.1492,0.1473,0.1468,0.1473,0.1457,0.1458,0.1445,0.1445,0.1443,0.1424,0.142,0.1402,0.1394,0.1385,0.1392,0.1385,0.1396,0.1394,0.1407,0.1406,0.1449,0.1454,0.1406,0.1406,0.1407,0,0.153,0.1534,0.1515,0.1513,0.1505,0.1502,0.1499,0.1478,0.1475,0.1461,0.1464,0.1458,0.1453,0.1447,0.1432,0.1426,0.1419,0.1434,0.1418,0.1423,0.142,0.142,0.142,0.1438,0.1439,0.1439,0.1439,0,0.1571,0.1562,0.1557,0.1549,0.1545,0.1538,0.1529,0.1529,0.1506,0.1503,0.1499,0.1494,0.1485,0.148,0.1471,0.1462,0.1447,0.1444,0.1447,0.1453,0.146,0.1457,0.1407,0.1444,0.1443,0.1443,0.1443,0.1443,0.1604,0.1606,0.1593,0.1588,0.1579,0.1571,0.1571,0.1558,0.1554,0.1545,0.1533,0.153,0.1517,0.1503,0.1496,0.1493,0.1485,0.1488,0.1489,0.1491,0.1494,0.1459,0.1492,0.1491,0.1491,0.1491,0.1491,0,0.1645,0.1635,0.163,0.1619,0.1615,0.16,0.159,0.1587,0.1585,0.1574,0.1569,0.1563,0.1558,0.1542,0.1535,0.1535,0.1528,0.1534,0.1535,0.1533,0.1501,0.15,0.154,0.154,0.154,0.154,0.154,0.154,0.1666,0.1668,0.1657,0.1655,0.1645,0.1641,0.1637,0.1629,0.1621,0.1616,0.1611,0.16,0.1587,0.1579,0.1573,0.1568,0.1567,0.1575,0.1569,0.154,0.1535,0.1531,0.153,0.1575,0.1575,0.16,0.1601,0.1601]}]]